Wind_Speed
13 12 12 12 12 10 10 10 7 4 9 11 14 16 16 17 15 11 12 16 18 16 14 9 11 11 11 12 13 16 17 17 15 15 17 18 21 23
15 14 14 13 14 16 15 14 15 15 9 20 19 18 19 18 14 14 14 10 12 14 15 19 17 16 16 14 13 12 13 15 16 17 16 16 16 17
18 19 19 18 18 19 19 19 20 21 13 20 20 19 18 19 20 18 16 18 20 24 25 24 23 22 22 20 20 20 18 16 15 17 19 18 18 18
20 22 23 23 22 21 21 21 21 21 21 19 21 21 21 20 19 19 20 21 21 22 22 23 23 23 24 27 28 25 24 23 23 19 21 22 20 20
23 24 24 24 23 21 20 21 20 20 20 21 20 22 22 22 22 21 21 20 22 22 20 17 19 24 26 27 27 24 26 26 25 23 23 23 24 24
23 23 22 22 23 22 21 21 21 21 22 23 23 23 23 23 23 21 21 21 21 22 22 24 23 26 26 28 31 31 30 31 30 27 26 25 24 24
27 27 26 24 20 21 24 26 24 23 23 22 21 22 21 20 20 20 19 18 18 18 18 20 20 23 29 32 35 28 30 30 29 31 30 29 28 27
28 28 28 27 23 20 17 19 24 25 24 23 23 21 23 22 21 20 19 17 10 18 20 20 20 21 21 21 18 32 33 30 35 36 36 33 31 29
27 28 27 26 25 24 25 25 20 20 24 24 25 26 25 24 23 22 21 20 19 18 18 18 15 17 16 21 25 20 13 14 24 25 29 29 30 29
27 26 26 26 26 19 19 21 21 22 21 22 26 26 24 24 24 24 22 22 21 20 18 17 17 18 17 19 21 24 24 23 20 21 25 29 31 30
25 24 23 24 25 23 21 22 23 23 22 24 28 31 32 31 29 25 20 18 15 20 21 22 21 21 20 21 22 25 29 25 26 26 23 23 23 22
23 23 23 24 25 24 22 22 21 21 20 20 20 20 22 24 30 30 25 21 20 17 21 19 20 20 15 19 25 26 25 28 30 28 27 26 24 21
24 23 22 7 10 12 14 16 20 20 20 22 22 22 22 23 23 22 30 28 25 24 22 18 8 15 19 18 18 16 14 17 21 23 25 29 27 25
23 22 13 20 18 17 15 14 14 16 16 17 17 18 17 17 19 20 21 24 29 29 23 19 16 20 18 14 13 16 17 19 15 15 15 18 23 28
18 21 15 14 16 14 9 11 12 12 10 12 13 13 12 12 14 16 17 18 21 23 23 23 23 21 19 15 14 15 12 13 14 14 14 15 20 22
19 16 13 13 13 13 10 8 7 7 9 11 11 12 12 12 14 16 17 15 16 18 21 23 24 21 18 18 17 16 17 12 7 12 15 14 15 13
18 11 11 13 14 12 10 9 8 9 10 10 11 12 12 11 13 11 8 9 11 12 13 17 22 23 21 19 17 18 16 15 17 13 12 14 15 15
11 11 13 14 13 13 14 13 12 13 12 12 12 11 11 12 14 13 5 7 9 8 10 9 12 13 13 17 23 17 16 14 15 12 15 15 12 13
12 12 13 14 16 16 16 16 15 14 13 12 12 11 11 11 13 12 10 7 7 8 8 4 7 11 7 8 7 22 15 13 12 12 13 12 8 9
12 13 14 15 15 16 16 15 16 14 14 13 11 11 11 12 10 11 11 10 10 9 5 4 5 7 6 4 3 2 2 5 7 10 9 7 9 9
13 13 13 14 14 15 15 15 15 14 14 14 14 13 12 12 11 11 11 11 11 10 8 8 8 7 6 6 5 7 4 5 3 3 7 5 4 7
12 12 12 13 13 13 14 15 16 15 15 15 15 13 13 11 10 11 10 10 10 9 8 6 6 6 5 6 5 3 4 2 5 3 3 2 3 3
10 11 11 12 12 13 14 14 15 15 16 16 16 16 14 13 12 10 10 10 10 9 9 8 8 4 5 6 6 3 1 1 1 5 4 6 3 4
Wind_Direction
289 284 278 275 265 260 261 258 262 295 294 264 266 263 250 267 257 226 237 244 234 231 234 231 235 232 229 235 244 242 243 248 251 250 249 254 258 259
274 275 273 277 278 275 268 256 244 241 265 274 274 280 286 267 252 233 243 254 218 226 257 263 260 254 246 241 245 251 254 256 254 255 260 260 263 265
286 281 283 282 281 279 276 274 269 267 268 275 280 279 271 263 264 267 251 251 250 252 251 251 257 251 254 259 257 257 259 261 263 255 256 263 263 265
293 296 295 291 292 289 282 275 273 275 279 284 283 287 285 279 272 268 264 259 261 262 258 241 239 251 257 259 261 262 260 258 256 260 259 257 266 270
290 289 291 296 293 288 285 286 282 281 283 279 278 277 278 278 278 274 269 267 263 263 272 255 243 237 243 256 263 262 259 256 255 254 252 258 261 268
290 284 283 282 283 284 286 285 287 288 282 279 275 272 270 269 269 272 273 270 268 265 263 259 253 243 251 258 260 259 256 262 260 258 257 255 257 263
300 294 286 280 279 283 281 283 282 283 281 278 274 271 269 266 261 265 271 273 274 273 274 270 265 246 245 251 251 247 245 249 255 255 258 259 260 263
295 293 291 289 280 280 280 276 268 272 277 280 282 285 289 293 294 293 293 290 283 275 277 277 276 277 272 275 249 250 244 251 255 256 260 262 263 262
293 291 291 288 290 284 280 275 266 264 258 263 271 270 274 275 278 278 277 274 274 275 272 275 270 270 265 266 276 283 294 265 252 252 253 255 262 262
295 294 292 287 286 296 296 291 284 277 268 259 257 263 263 266 266 272 278 280 277 272 266 270 270 267 267 266 270 278 279 276 271 265 260 262 267 265
302 298 299 296 291 298 291 283 281 277 273 267 265 266 266 264 264 270 273 275 268 264 258 259 261 264 264 261 262 264 268 271 261 260 260 254 259 266
304 302 295 286 282 280 278 274 277 279 288 290 286 278 268 264 259 254 255 258 263 268 263 260 259 258 264 261 256 258 257 256 258 257 252 254 257 256
308 302 297 342 338 315 301 287 282 289 286 285 281 277 272 267 263 251 241 242 247 256 260 270 272 265 260 261 267 274 256 259 252 251 249 247 247 246
306 301 322 325 324 311 297 287 288 289 278 271 269 268 266 264 262 261 257 250 246 251 260 255 259 259 262 267 270 275 262 256 252 247 247 247 242 244
317 324 321 323 319 310 314 297 290 279 291 297 290 290 291 286 281 278 273 263 256 252 252 248 249 257 262 266 276 280 294 271 247 232 244 237 239 244
325 319 333 333 323 309 316 324 307 318 313 307 313 309 304 297 285 269 263 258 251 250 245 244 248 247 254 261 266 273 278 276 261 236 239 235 230 234
329 345 349 348 338 352 356 353 344 343 338 333 328 327 322 321 314 305 297 282 260 259 246 231 237 243 243 249 255 257 268 290 278 259 227 223 231 237
350 359 356 350 347 357 2 359 360 356 349 338 336 335 334 329 325 317 283 298 298 284 263 249 213 217 233 250 240 253 266 269 283 284 246 239 247 239
3 360 355 350 353 360 3 359 353 353 346 344 339 339 342 334 328 340 349 333 287 290 299 243 208 210 228 233 202 222 248 260 277 282 284 266 217 253
1 353 355 355 355 355 358 353 348 351 352 348 351 350 348 338 349 354 352 351 347 346 343 358 3 7 5 2 21 87 234 275 283 283 284 286 214 228
354 353 354 354 354 353 351 348 347 357 356 353 357 355 354 351 358 360 354 354 352 2 17 15 355 340 310 298 248 172 102 6 240 306 333 289 234 239
352 350 351 352 353 352 350 350 352 0 3 359 354 352 356 359 356 357 0 355 356 353 351 343 340 339 321 311 322 70 127 51 15 13 305 311 347 7
350 349 349 351 353 352 353 353 355 358 0 1 354 352 356 1 358 2 359 357 356 350 349 342 337 349 339 335 327 54 74 236 327 208 70 8 321 303
Height
789 787 785 782 780 778 775 774 772 767 758 754 755 754 753 753 752 750 752 753 755 756 759 759 760 761 762 763 764 765 766 768 769 770 771 772 773 774
785 782 781 777 775 774 772 769 768 766 761 756 751 750 748 748 747 747 750 752 753 754 756 758 758 758 760 761 761 762 763 763 764 766 767 768 770 770
781 778 775 773 771 769 766 764 762 759 754 750 748 747 745 745 745 745 747 748 748 748 749 752 753 754 756 758 759 759 760 760 760 762 763 764 765 766
778 775 772 769 766 764 762 760 758 756 753 748 747 745 743 742 741 741 741 742 742 743 741 742 746 749 751 753 754 755 755 755 756 757 757 758 760 761
774 771 769 766 763 761 759 757 755 753 751 747 744 743 741 740 738 737 737 738 738 739 738 740 743 745 746 746 748 749 750 750 750 752 752 753 755 756
768 766 764 763 760 759 757 755 753 751 749 746 742 740 739 737 736 735 734 734 733 732 733 734 734 735 738 740 741 742 743 743 744 745 747 748 749 749
765 761 758 756 755 755 756 756 755 752 748 744 739 736 732 730 729 729 727 728 727 728 728 728 728 729 729 730 731 732 734 735 736 738 739 741 742 744
763 758 754 751 750 749 749 750 751 750 747 744 737 733 730 729 728 727 726 726 724 727 726 724 725 724 724 724 724 724 724 726 728 730 732 734 734 736
759 754 750 746 745 744 742 741 741 742 742 741 738 736 733 732 731 729 727 726 725 725 725 722 723 722 722 721 720 720 722 722 723 724 725 726 727 728
755 750 747 743 741 739 738 737 736 736 735 734 731 729 729 729 728 726 724 723 722 721 721 719 719 718 719 719 718 717 717 718 718 719 719 720 720 721
751 747 744 740 737 736 736 734 732 729 728 726 724 722 721 722 722 722 720 720 716 715 716 714 714 713 714 713 713 712 711 710 711 712 713 714 716 716
748 743 740 736 733 732 731 729 726 724 723 721 718 715 714 713 713 715 716 715 713 710 710 710 708 709 706 705 704 703 703 703 704 706 707 709 711 712
744 739 735 730 728 727 726 725 723 721 719 717 714 711 709 707 706 705 706 707 706 704 705 707 705 704 702 701 699 698 698 698 698 699 700 702 704 707
741 735 730 728 726 723 721 719 718 717 715 712 709 706 703 702 700 699 699 698 698 698 700 702 701 701 698 696 695 694 693 693 693 694 694 695 697 699
737 733 729 726 723 720 717 716 714 712 710 707 704 702 699 697 696 694 693 692 692 692 694 695 696 696 695 693 692 691 691 689 689 690 691 691 692 693
736 731 728 725 722 718 715 713 712 710 708 706 703 700 697 695 692 689 688 687 686 686 687 688 689 691 690 691 691 690 689 689 687 688 688 688 688 688
735 732 729 726 722 718 716 714 711 710 707 705 702 699 696 693 690 686 685 683 682 681 681 681 683 684 686 687 687 686 685 686 684 684 684 684 684 685
736 734 731 728 724 720 718 715 712 710 708 705 702 700 697 693 690 685 683 682 679 678 677 677 678 680 682 682 682 682 682 682 681 681 680 680 680 681
739 736 734 730 726 722 720 717 715 712 709 706 703 701 697 694 691 686 683 680 678 676 674 674 675 676 676 673 675 676 679 679 678 677 677 676 676 679
742 739 736 733 729 726 723 720 717 714 710 707 704 701 698 695 691 688 685 683 680 677 675 675 675 675 673 673 672 676 676 677 678 676 675 674 674 676
744 741 738 735 732 729 726 723 719 716 713 709 706 702 699 696 693 690 688 685 682 679 678 678 678 677 676 675 674 674 676 676 675 675 674 672 672 673
746 743 740 737 735 732 729 725 721 717 715 712 708 705 701 698 695 693 690 687 685 683 681 680 679 678 676 675 673 673 674 675 675 675 674 674 675 672
747 745 742 739 737 734 731 727 724 720 717 715 711 707 703 700 697 694 692 689 687 685 683 680 678 677 677 676 675 674 675 676 675 674 674 674 674 674